Retour au catalogue

STARLINK-1286

ActifCommunicationsVLEO
NORAD 45417·PAYLOAD·🇺🇸 United States

Lancé Mar 18, 2020 depuis Cape Canaveral Space Force Station

Loading…

Prochains Passages (prochaines 24 heures)

TLE

FraisSource: CelesTrak SupGP

Époque: Sep 14, 2026, 20:00 UTC

1 45417C 20019BK  26257.83381944  .00090891  00000+0  52366-3 0  2573
2 45417  53.0371 284.6056 0003121   3.8698   7.1795 15.77945384    17

Suivez STARLINK-1286 en temps réel avec AllMySat

Download on the App Store